LVMDZ SGAS-SARC

Flight info

Callsign LVMDZ
Flight time 1h 0m
Altitude 10000
Route ARPAS ARPAS A428 DIGET
Aircraft DC3/M-SDF/S

Departure

Time 2026-04-25 02:09
Airport Silvio Pettirossi International Airport (SGAS)

Arrival

Time 2026-04-25 03:09
Airport Corrientes Airport (SARC)
Time Latitude Longitude Altitude Speed Heading
2026-04-25 01:49 -25.24992 -57.51417 299 ft 0 kts 18°
2026-04-25 01:50 -25.25386 -57.51739 299 ft 0 kts 200°
2026-04-25 01:57 -25.25388 -57.51740 299 ft 1 kts 207°
2026-04-25 01:57 -25.25390 -57.51741 299 ft 0 kts 214°
2026-04-25 01:57 -25.25394 -57.51745 299 ft 1 kts 243°
2026-04-25 01:58 -25.25395 -57.51749 299 ft 1 kts 273°
2026-04-25 01:58 -25.25395 -57.51754 299 ft 1 kts 303°
2026-04-25 01:58 -25.25393 -57.51757 299 ft 0 kts 318°
2026-04-25 02:00 -25.25389 -57.51760 299 ft 2 kts 331°
2026-04-25 02:00 -25.25361 -57.51767 299 ft 6 kts 353°
2026-04-25 02:00 -25.25309 -57.51776 299 ft 7 kts 341°
2026-04-25 02:00 -25.25276 -57.51783 299 ft 2 kts 23°
2026-04-25 02:01 -25.25246 -57.51770 299 ft 12 kts 21°
2026-04-25 02:01 -25.25131 -57.51721 299 ft 19 kts 21°
2026-04-25 02:01 -25.25001 -57.51662 299 ft 21 kts 22°
2026-04-25 02:01 -25.24871 -57.51602 299 ft 20 kts 22°
2026-04-25 02:02 -25.24755 -57.51609 299 ft 16 kts 329°
2026-04-25 02:02 -25.24669 -57.51683 299 ft 16 kts 308°
2026-04-25 02:02 -25.24636 -57.51796 299 ft 16 kts 285°
2026-04-25 02:02 -25.24582 -57.51837 299 ft 2 kts 43°
2026-04-25 02:03 -25.24549 -57.51826 299 ft 8 kts 12°
2026-04-25 02:03 -25.24479 -57.51811 299 ft 12 kts 11°
2026-04-25 02:03 -25.24381 -57.51787 299 ft 16 kts 14°
2026-04-25 02:03 -25.24262 -57.51758 299 ft 19 kts 13°
2026-04-25 02:04 -25.24126 -57.51723 299 ft 21 kts 13°
2026-04-25 02:04 -25.23975 -57.51688 299 ft 23 kts 13°
2026-04-25 02:04 -25.23814 -57.51647 299 ft 24 kts 13°
2026-04-25 02:04 -25.23644 -57.51604 299 ft 25 kts 13°
2026-04-25 02:05 -25.23470 -57.51560 299 ft 26 kts 11°
2026-04-25 02:05 -25.23292 -57.51519 299 ft 26 kts 13°
2026-04-25 02:05 -25.23111 -57.51482 299 ft 27 kts 12°
2026-04-25 02:05 -25.22930 -57.51441 299 ft 27 kts 11°
2026-04-25 02:06 -25.22770 -57.51398 299 ft 19 kts 12°
2026-04-25 02:06 -25.22644 -57.51369 299 ft 16 kts 12°
2026-04-25 02:06 -25.22557 -57.51415 299 ft 17 kts 294°
2026-04-25 02:06 -25.22539 -57.51467 299 ft 0 kts 289°
2026-04-25 02:08 -25.22550 -57.51550 299 ft 21 kts 212°
2026-04-25 02:08 -25.22780 -57.51615 300 ft 54 kts 193°
2026-04-25 02:08 -25.23292 -57.51739 343 ft 89 kts 189°
2026-04-25 02:08 -25.23934 -57.51886 544 ft 100 kts 192°
2026-04-25 02:09 -25.24620 -57.52024 871 ft 99 kts 187°
2026-04-25 02:09 -25.25274 -57.52063 1154 ft 92 kts 182°
2026-04-25 02:09 -25.25893 -57.52166 1367 ft 93 kts 188°
2026-04-25 02:09 -25.26511 -57.52402 1530 ft 100 kts 219°
2026-04-25 02:10 -25.26787 -57.53115 1717 ft 107 kts 267°
2026-04-25 02:10 -25.26970 -57.53875 1901 ft 103 kts 225°
2026-04-25 02:10 -25.27584 -57.54196 2091 ft 100 kts 180°
2026-04-25 02:10 -25.28248 -57.54022 2291 ft 99 kts 165°
2026-04-25 02:11 -25.28904 -57.53819 2491 ft 99 kts 164°
2026-04-25 02:11 -25.29565 -57.53620 2685 ft 99 kts 168°
2026-04-25 02:11 -25.30249 -57.53597 2877 ft 99 kts 181°
2026-04-25 02:11 -25.30938 -57.53687 3068 ft 100 kts 186°
2026-04-25 02:12 -25.31631 -57.53824 3277 ft 103 kts 188°
2026-04-25 02:12 -25.32335 -57.53983 3493 ft 104 kts 189°
2026-04-25 02:12 -25.33044 -57.54151 3709 ft 105 kts 189°
2026-04-25 02:12 -25.33740 -57.54387 3911 ft 108 kts 210°
2026-04-25 02:13 -25.34180 -57.55090 4066 ft 117 kts 243°
2026-04-25 02:13 -25.34527 -57.55913 4245 ft 119 kts 242°
2026-04-25 02:13 -25.34881 -57.56751 4432 ft 121 kts 243°
2026-04-25 02:13 -25.35232 -57.57594 4621 ft 121 kts 243°
2026-04-25 02:14 -25.35613 -57.58418 4806 ft 121 kts 234°
2026-04-25 02:14 -25.36077 -57.59193 4996 ft 122 kts 233°
2026-04-25 02:14 -25.36548 -57.59977 5195 ft 124 kts 234°
2026-04-25 02:14 -25.37070 -57.60727 5394 ft 123 kts 221°
2026-04-25 02:15 -25.37659 -57.61418 5598 ft 124 kts 224°
2026-04-25 02:15 -25.38253 -57.62115 5799 ft 124 kts 224°
2026-04-25 02:15 -25.38919 -57.62714 5994 ft 124 kts 216°
2026-04-25 02:15 -25.39602 -57.63283 6188 ft 124 kts 214°
2026-04-25 02:16 -25.40292 -57.63855 6356 ft 126 kts 214°
2026-04-25 02:16 -25.41016 -57.64453 6478 ft 134 kts 214°
2026-04-25 02:16 -25.41776 -57.65077 6636 ft 139 kts 214°
2026-04-25 02:16 -25.42556 -57.65716 6811 ft 141 kts 214°
2026-04-25 02:17 -25.43353 -57.66368 6994 ft 142 kts 214°
2026-04-25 02:17 -25.44147 -57.67018 7177 ft 143 kts 214°
2026-04-25 02:17 -25.44948 -57.67670 7360 ft 144 kts 214°
2026-04-25 02:17 -25.45758 -57.68309 7539 ft 144 kts 209°
2026-04-25 02:18 -25.46600 -57.68899 7718 ft 144 kts 210°
2026-04-25 02:18 -25.47442 -57.69490 7894 ft 144 kts 210°
2026-04-25 02:18 -25.48283 -57.70079 8067 ft 144 kts 210°
2026-04-25 02:18 -25.49131 -57.70672 8238 ft 144 kts 210°
2026-04-25 02:19 -25.49974 -57.71260 8405 ft 144 kts 210°
2026-04-25 02:19 -25.50822 -57.71850 8570 ft 144 kts 210°
2026-04-25 02:19 -25.51667 -57.72436 8731 ft 144 kts 210°
2026-04-25 02:19 -25.52514 -57.73022 8890 ft 144 kts 210°
2026-04-25 02:20 -25.53362 -57.73607 9047 ft 144 kts 211°
2026-04-25 02:20 -25.54212 -57.74193 9201 ft 145 kts 211°
2026-04-25 02:20 -25.55080 -57.74788 9356 ft 145 kts 211°
2026-04-25 02:20 -25.55933 -57.75371 9507 ft 145 kts 211°
2026-04-25 02:21 -25.56793 -57.75957 9656 ft 145 kts 211°
2026-04-25 02:21 -25.57648 -57.76538 9801 ft 145 kts 211°
2026-04-25 02:21 -25.58506 -57.77118 9945 ft 145 kts 211°
2026-04-25 02:21 -25.59364 -57.77697 10087 ft 145 kts 211°
2026-04-25 02:22 -25.60224 -57.78275 10227 ft 145 kts 211°
2026-04-25 02:22 -25.61091 -57.78855 10366 ft 145 kts 211°
2026-04-25 02:22 -25.61951 -57.79428 10502 ft 145 kts 211°
2026-04-25 02:22 -25.62814 -57.80002 10637 ft 145 kts 211°
2026-04-25 02:23 -25.63678 -57.80573 10770 ft 145 kts 211°
2026-04-25 02:23 -25.64534 -57.81163 10901 ft 145 kts 214°
2026-04-25 02:23 -25.65381 -57.81782 11031 ft 145 kts 214°
2026-04-25 02:23 -25.66221 -57.82395 11160 ft 145 kts 214°
2026-04-25 02:24 -25.67073 -57.83014 11295 ft 146 kts 214°
2026-04-25 02:24 -25.67924 -57.83631 11434 ft 147 kts 214°
2026-04-25 02:24 -25.68780 -57.84248 11573 ft 147 kts 214°
2026-04-25 02:24 -25.69646 -57.84871 11714 ft 148 kts 214°
2026-04-25 02:25 -25.70508 -57.85489 11854 ft 148 kts 214°
2026-04-25 02:25 -25.71372 -57.86105 11969 ft 150 kts 214°
2026-04-25 02:25 -25.72277 -57.86753 11953 ft 160 kts 214°
2026-04-25 02:25 -25.73239 -57.87443 11952 ft 167 kts 214°
2026-04-25 02:26 -25.74226 -57.88153 11950 ft 172 kts 214°
2026-04-25 02:26 -25.75239 -57.88885 11950 ft 176 kts 214°
2026-04-25 02:26 -25.76264 -57.89628 11949 ft 178 kts 214°
2026-04-25 02:26 -25.77301 -57.90380 11948 ft 179 kts 214°
2026-04-25 02:27 -25.78345 -57.91139 11948 ft 180 kts 214°
2026-04-25 02:27 -25.79383 -57.91895 11945 ft 178 kts 214°
2026-04-25 02:27 -25.80419 -57.92650 11945 ft 176 kts 214°
2026-04-25 02:27 -25.81440 -57.93395 11945 ft 175 kts 214°
2026-04-25 02:28 -25.82456 -57.94136 11945 ft 174 kts 214°
2026-04-25 02:28 -25.83459 -57.94869 11946 ft 173 kts 214°
2026-04-25 02:28 -25.84461 -57.95602 11946 ft 173 kts 214°
2026-04-25 02:28 -25.85460 -57.96333 11946 ft 172 kts 214°
2026-04-25 02:29 -25.86458 -57.97064 11947 ft 172 kts 214°
2026-04-25 02:29 -25.87457 -57.97796 11947 ft 172 kts 214°
2026-04-25 02:29 -25.88451 -57.98526 11947 ft 172 kts 214°
2026-04-25 02:29 -25.89442 -57.99255 11947 ft 171 kts 214°
2026-04-25 02:30 -25.90434 -57.99984 11947 ft 171 kts 214°
2026-04-25 02:30 -25.91424 -58.00714 11947 ft 171 kts 214°
2026-04-25 02:30 -25.92412 -58.01449 11947 ft 171 kts 214°
2026-04-25 02:30 -25.93400 -58.02178 11947 ft 171 kts 214°
2026-04-25 02:31 -25.94395 -58.02913 11947 ft 171 kts 214°
2026-04-25 02:31 -25.95383 -58.03645 11947 ft 171 kts 215°
2026-04-25 02:31 -25.96370 -58.04376 11947 ft 171 kts 215°
2026-04-25 02:31 -25.97356 -58.05107 11947 ft 171 kts 215°
2026-04-25 02:32 -25.98341 -58.05839 11947 ft 171 kts 215°
2026-04-25 02:32 -25.99329 -58.06574 11947 ft 171 kts 215°
2026-04-25 02:32 -26.00314 -58.07307 11948 ft 171 kts 215°
2026-04-25 02:32 -26.01309 -58.08049 11948 ft 171 kts 215°
2026-04-25 02:33 -26.02297 -58.08786 11948 ft 171 kts 215°
2026-04-25 02:33 -26.03281 -58.09521 11948 ft 171 kts 215°
2026-04-25 02:33 -26.04265 -58.10258 11948 ft 171 kts 215°
2026-04-25 02:33 -26.05250 -58.10996 11948 ft 171 kts 215°
2026-04-25 02:34 -26.06238 -58.11737 11948 ft 171 kts 215°
2026-04-25 02:34 -26.07223 -58.12477 11948 ft 171 kts 215°
2026-04-25 02:34 -26.08216 -58.13223 11948 ft 171 kts 215°
2026-04-25 02:34 -26.09201 -58.13965 11948 ft 171 kts 215°
2026-04-25 02:35 -26.10185 -58.14706 11947 ft 171 kts 215°
2026-04-25 02:35 -26.11168 -58.15448 11945 ft 171 kts 215°
2026-04-25 02:35 -26.12151 -58.16191 11945 ft 171 kts 215°
2026-04-25 02:35 -26.13132 -58.16932 11945 ft 171 kts 215°
2026-04-25 02:36 -26.14112 -58.17675 11945 ft 171 kts 215°
2026-04-25 02:36 -26.15097 -58.18422 11945 ft 171 kts 215°
2026-04-25 02:36 -26.16075 -58.19165 11945 ft 171 kts 215°
2026-04-25 02:36 -26.17053 -58.19908 11945 ft 171 kts 215°
2026-04-25 02:37 -26.18029 -58.20650 11945 ft 171 kts 215°
2026-04-25 02:37 -26.19006 -58.21394 11945 ft 171 kts 216°
2026-04-25 02:37 -26.19980 -58.22137 11945 ft 171 kts 216°
2026-04-25 02:37 -26.20956 -58.22883 11946 ft 171 kts 216°
2026-04-25 02:38 -26.21939 -58.23635 11946 ft 171 kts 216°
2026-04-25 02:38 -26.22916 -58.24383 11945 ft 171 kts 216°
2026-04-25 02:38 -26.23891 -58.25130 11946 ft 171 kts 216°
2026-04-25 02:38 -26.24864 -58.25877 11946 ft 171 kts 216°
2026-04-25 02:39 -26.25838 -58.26626 11946 ft 171 kts 216°
2026-04-25 02:39 -26.26811 -58.27374 11946 ft 171 kts 216°
2026-04-25 02:39 -26.27783 -58.28123 11946 ft 171 kts 216°
2026-04-25 02:39 -26.28764 -58.28879 11946 ft 171 kts 216°
2026-04-25 02:40 -26.29784 -58.29569 11946 ft 171 kts 212°
2026-04-25 02:40 -26.30773 -58.30324 11946 ft 171 kts 215°
2026-04-25 02:40 -26.31747 -58.31078 11946 ft 171 kts 216°
2026-04-25 02:40 -26.32724 -58.31835 11946 ft 171 kts 216°
2026-04-25 02:41 -26.33696 -58.32590 11946 ft 171 kts 216°
2026-04-25 02:41 -26.34673 -58.33348 11946 ft 171 kts 216°
2026-04-25 02:41 -26.35655 -58.34113 11946 ft 171 kts 216°
2026-04-25 02:41 -26.36626 -58.34869 11946 ft 171 kts 216°
2026-04-25 02:42 -26.37601 -58.35630 11946 ft 171 kts 216°
2026-04-25 02:42 -26.38576 -58.36390 11946 ft 171 kts 216°
2026-04-25 02:42 -26.39574 -58.37120 11946 ft 171 kts 213°
2026-04-25 02:42 -26.40578 -58.37828 11946 ft 171 kts 213°
2026-04-25 02:43 -26.41585 -58.38537 11946 ft 171 kts 213°
2026-04-25 02:43 -26.42600 -58.39252 11946 ft 171 kts 213°
2026-04-25 02:43 -26.43611 -58.39951 11943 ft 172 kts 208°
2026-04-25 02:43 -26.44688 -58.40528 11947 ft 171 kts 206°
2026-04-25 02:44 -26.45765 -58.41107 11946 ft 171 kts 206°
2026-04-25 02:44 -26.46849 -58.41690 11946 ft 171 kts 206°
2026-04-25 02:44 -26.47923 -58.42268 11946 ft 171 kts 206°
2026-04-25 02:44 -26.48997 -58.42847 11946 ft 172 kts 206°
2026-04-25 02:45 -26.50077 -58.43430 11946 ft 172 kts 206°
2026-04-25 02:45 -26.51161 -58.44016 11947 ft 172 kts 206°
2026-04-25 02:45 -26.52229 -58.44594 11946 ft 172 kts 206°
2026-04-25 02:45 -26.53305 -58.45177 11946 ft 172 kts 206°
2026-04-25 02:46 -26.54380 -58.45761 11946 ft 172 kts 206°
2026-04-25 02:46 -26.55451 -58.46343 11947 ft 172 kts 206°
2026-04-25 02:46 -26.56525 -58.46927 11946 ft 172 kts 206°
2026-04-25 02:46 -26.57604 -58.47515 11947 ft 172 kts 206°
2026-04-25 02:47 -26.58674 -58.48100 11947 ft 172 kts 206°
2026-04-25 02:47 -26.59748 -58.48687 11947 ft 172 kts 206°
2026-04-25 02:47 -26.60828 -58.49278 11947 ft 172 kts 206°
2026-04-25 02:47 -26.61898 -58.49865 11947 ft 172 kts 206°
2026-04-25 02:48 -26.62973 -58.50455 11947 ft 172 kts 206°
2026-04-25 02:48 -26.64047 -58.51046 11947 ft 172 kts 206°
2026-04-25 02:48 -26.65126 -58.51640 11947 ft 172 kts 207°
2026-04-25 02:48 -26.66194 -58.52229 11947 ft 172 kts 207°
2026-04-25 02:49 -26.67265 -58.52820 11947 ft 172 kts 207°
2026-04-25 02:49 -26.68337 -58.53413 11947 ft 172 kts 207°
2026-04-25 02:49 -26.69407 -58.54014 11946 ft 172 kts 209°
2026-04-25 02:49 -26.70441 -58.54680 11947 ft 172 kts 212°
2026-04-25 02:50 -26.71464 -58.55370 11947 ft 172 kts 212°
2026-04-25 02:50 -26.72491 -58.56065 11947 ft 172 kts 212°
2026-04-25 02:50 -26.73512 -58.56756 11947 ft 172 kts 212°
2026-04-25 02:50 -26.74533 -58.57449 11947 ft 172 kts 212°
2026-04-25 02:51 -26.75553 -58.58142 11947 ft 172 kts 212°
2026-04-25 02:51 -26.76582 -58.58842 11947 ft 172 kts 212°
2026-04-25 02:51 -26.77603 -58.59537 11947 ft 172 kts 212°
2026-04-25 02:51 -26.78629 -58.60237 11947 ft 172 kts 212°
2026-04-25 02:52 -26.79659 -58.60941 11947 ft 172 kts 212°
2026-04-25 02:52 -26.80682 -58.61640 11947 ft 172 kts 212°
2026-04-25 02:52 -26.81704 -58.62339 11947 ft 172 kts 212°
2026-04-25 02:52 -26.82722 -58.63037 11947 ft 172 kts 212°
2026-04-25 02:53 -26.83732 -58.63730 11947 ft 172 kts 212°
2026-04-25 02:53 -26.84755 -58.64433 11947 ft 172 kts 212°
2026-04-25 02:53 -26.85775 -58.65135 11947 ft 172 kts 213°
2026-04-25 02:53 -26.86805 -58.65844 11947 ft 172 kts 213°
2026-04-25 02:54 -26.87827 -58.66548 11947 ft 172 kts 213°
2026-04-25 02:54 -26.88845 -58.67251 11947 ft 172 kts 213°
2026-04-25 02:54 -26.89873 -58.67935 11944 ft 173 kts 206°
2026-04-25 02:54 -26.90977 -58.68454 11943 ft 173 kts 195°
2026-04-25 02:55 -26.92116 -58.68853 11948 ft 172 kts 197°
2026-04-25 02:55 -26.93259 -58.69255 11947 ft 172 kts 198°
2026-04-25 02:55 -26.94408 -58.69660 11947 ft 173 kts 198°
2026-04-25 02:55 -26.95581 -58.69897 11949 ft 172 kts 190°
2026-04-25 02:56 -26.96761 -58.70108 11948 ft 173 kts 189°
2026-04-25 02:56 -26.97943 -58.70318 11947 ft 173 kts 189°
2026-04-25 02:56 -26.99127 -58.70527 11947 ft 173 kts 189°
2026-04-25 02:56 -27.00309 -58.70736 11947 ft 173 kts 189°
2026-04-25 02:57 -27.01497 -58.70947 11947 ft 173 kts 189°
2026-04-25 02:57 -27.02694 -58.71159 11948 ft 173 kts 189°
2026-04-25 02:57 -27.03879 -58.71370 11948 ft 173 kts 189°
2026-04-25 02:57 -27.05061 -58.71580 11948 ft 173 kts 189°
2026-04-25 02:58 -27.06247 -58.71792 11948 ft 173 kts 189°
2026-04-25 02:58 -27.07432 -58.72004 11948 ft 173 kts 189°
2026-04-25 02:58 -27.08618 -58.72216 11947 ft 173 kts 189°
2026-04-25 02:58 -27.09804 -58.72430 11948 ft 173 kts 189°
2026-04-25 02:59 -27.11005 -58.72602 11933 ft 172 kts 177°
2026-04-25 02:59 -27.12163 -58.72547 11881 ft 165 kts 177°
2026-04-25 02:59 -27.13311 -58.72500 11653 ft 168 kts 177°
2026-04-25 02:59 -27.14477 -58.72392 11436 ft 169 kts 173°
2026-04-25 03:00 -27.15642 -58.72266 11227 ft 170 kts 173°
2026-04-25 03:00 -27.16815 -58.72140 11022 ft 170 kts 173°
2026-04-25 03:00 -27.17985 -58.72132 10804 ft 168 kts 190°
2026-04-25 03:00 -27.19122 -58.72317 10454 ft 166 kts 188°
2026-04-25 03:01 -27.20223 -58.72501 10057 ft 155 kts 187°
2026-04-25 03:01 -27.21238 -58.72676 9639 ft 143 kts 187°
2026-04-25 03:01 -27.22186 -58.72847 9207 ft 136 kts 187°
2026-04-25 03:01 -27.23098 -58.73017 8770 ft 133 kts 187°
2026-04-25 03:02 -27.23988 -58.73188 8324 ft 131 kts 187°
2026-04-25 03:02 -27.24902 -58.73366 7713 ft 139 kts 187°
2026-04-25 03:02 -27.25858 -58.73554 7107 ft 142 kts 187°
2026-04-25 03:02 -27.26830 -58.73672 6510 ft 143 kts 182°
2026-04-25 03:03 -27.27810 -58.73768 5923 ft 144 kts 182°
2026-04-25 03:03 -27.28791 -58.73865 5339 ft 144 kts 182°
2026-04-25 03:03 -27.29766 -58.73959 4763 ft 143 kts 182°
2026-04-25 03:03 -27.30737 -58.74054 4187 ft 141 kts 184°
2026-04-25 03:04 -27.31664 -58.74355 3611 ft 141 kts 192°
2026-04-25 03:04 -27.32615 -58.74532 2970 ft 143 kts 178°
2026-04-25 03:04 -27.33524 -58.74175 2404 ft 134 kts 139°
2026-04-25 03:05 -27.34805 -58.73656 2041 ft 95 kts 209°
2026-04-25 03:05 -27.35179 -58.74198 1879 ft 88 kts 248°
2026-04-25 03:05 -27.35479 -58.74773 1742 ft 85 kts 218°
2026-04-25 03:05 -27.36014 -58.75004 1603 ft 83 kts 189°
2026-04-25 03:06 -27.36571 -58.75119 1513 ft 80 kts 187°
2026-04-25 03:06 -27.37124 -58.75209 1395 ft 82 kts 184°
2026-04-25 03:06 -27.37712 -58.75265 1141 ft 85 kts 181°
2026-04-25 03:06 -27.38277 -58.75285 924 ft 82 kts 179°
2026-04-25 03:07 -27.38845 -58.75312 715 ft 82 kts 182°
2026-04-25 03:07 -27.39407 -58.75430 533 ft 85 kts 192°
2026-04-25 03:07 -27.39986 -58.75537 635 ft 87 kts 185°
2026-04-25 03:07 -27.40591 -58.75610 659 ft 89 kts 191°
2026-04-25 03:08 -27.41195 -58.75710 649 ft 89 kts 185°
2026-04-25 03:08 -27.41825 -58.75760 575 ft 94 kts 186°
2026-04-25 03:08 -27.42442 -58.75897 460 ft 84 kts 186°
2026-04-25 03:08 -27.42990 -58.75978 365 ft 78 kts 187°
2026-04-25 03:09 -27.43505 -58.76057 254 ft 74 kts 185°
2026-04-25 03:09 -27.43993 -58.76139 209 ft 65 kts 189°
2026-04-25 03:09 -27.44345 -58.76194 209 ft 40 kts 189°
2026-04-25 03:09 -27.44572 -58.76233 208 ft 22 kts 188°
2026-04-25 03:10 -27.44664 -58.76165 208 ft 16 kts 92°
2026-04-25 03:10 -27.44668 -58.76051 208 ft 13 kts 89°
2026-04-25 03:10 -27.44664 -58.75959 208 ft 11 kts 86°
2026-04-25 03:10 -27.44668 -58.75887 208 ft 8 kts 103°
2026-04-25 03:11 -27.44675 -58.75833 208 ft 6 kts 85°
2026-04-25 03:11 -27.44698 -58.75784 208 ft 4 kts 142°
2026-04-25 03:11 -27.44699 -58.75784 208 ft 0 kts 142°